This is the latest recevied weather packets stored in our database for station/object NU3S-7. If no packets are shown the sender has not sent any weather packets the latest 1 day(s).
| Time | Temp. | Humidity | Pressure | Rain* | Wind** | Luminosity | Snow |
|---|---|---|---|---|---|---|---|
| 1778071065 | 11.11° C | 100% | 1006.4 hPa | 11.18 mm | - | - | - |
| 1778070465 | 11.67° C | 100% | 1006.3 hPa | 11.18 mm | - | - | - |
| 1778070010 | 13.89° C | 100% | 1006.3 hPa | 10.92 mm | - | - | - |
| 1778068813 | 13.33° C | 100% | 1006.2 hPa | 10.41 mm | - | - | - |
| 1778068664 | 13.33° C | 100% | 1006.2 hPa | 10.41 mm | - | - | - |
| 1778068212 | 13.33° C | 100% | 1005.9 hPa | 9.91 mm | - | - | - |
| 1778067463 | 13.33° C | 100% | 1005.8 hPa | 9.91 mm | - | - | - |
| 1778065814 | 13.33° C | 100% | 1005.4 hPa | 9.91 mm | - | - | - |
| 1778065662 | 13.33° C | 100% | 1005.4 hPa | 9.91 mm | - | - | - |
| 1778064461 | 13.33° C | 100% | 1005.6 hPa | 9.4 mm | - | - | - |
| 1778064012 | 13.33° C | 100% | 1005.6 hPa | 8.64 mm | - | - | - |
| 1778063861 | 13.33° C | 100% | 1005.6 hPa | 8.64 mm | - | - | - |
| 1778062660 | 13.33° C | 100% | 1005.8 hPa | 8.13 mm | - | - | - |
| 1778062060 | 13.33° C | 100% | 1005.8 hPa | 7.62 mm | - | - | - |
| 1778061457 | 13.33° C | 100% | 1005.6 hPa | 6.86 mm | - | - | - |
| 1778060255 | 13.33° C | 100% | 1005.6 hPa | 5.84 mm | - | - | - |
| 1778059655 | 13.33° C | 100% | 1005.8 hPa | 5.84 mm | - | - | - |
| 1778057852 | 13.33° C | 100% | 1006.3 hPa | 4.83 mm | - | - | - |
| 1778056650 | 13.33° C | 100% | 1006.2 hPa | 3.81 mm | - | - | - |
| 1778055449 | 13.33° C | 100% | 1006 hPa | 2.79 mm | - | - | - |
| 1778054248 | 13.33° C | 100% | 1006.1 hPa | 2.29 mm | - | - | - |
| 1778053648 | 13.33° C | 100% | 1005.9 hPa | 2.29 mm | - | - | - |
| 1778053047 | 13.33° C | 100% | 1005.9 hPa | 2.29 mm | - | - | - |
| 1778052447 | 13.33° C | 100% | 1005.9 hPa | 2.29 mm | - | - | - |
| 1778052013 | 13.33° C | 100% | 1006 hPa | 2.29 mm | - | - | - |
* Rain since midnight (hover to see other rain measurements)
** Current wind speed in m/s (hover to see current wind gust speed)